Regional Weather Roundup
Issued by NWS Charleston, SC

Current Version | Previous Version | Text Only | Print | Product List | Glossary Off
Versions: 1 2 3 4 5 6 7 8 9 10 11 12 13 14 15 16 17 18 19 20 21 22 23 24 25 26 27 28 29 30 31 32 33 34 35 36 37 38 39 40 41 42 43 44 45 46 47 48 49 50

000
ASUS42 KCHS 232127
RWRCHS

REGIONAL WEATHER ROUNDUP
NATIONAL WEATHER SERVICE CHARLESTON SC
400 PM EST THU NOV 23 2017

NOTE: "FAIR" INDICATES FEW OR NO CLOUDS BELOW 12,000 FEET WITH NO
SIGNIFICANT WEATHER AND/OR OBSTRUCTIONS TO VISIBILITY.

NOT ALL STATIONS ARE QUALITY CONTROLLED. USE DATA WITH CAUTION...
ESPECIALLY DEWPOINT OBSERVATIONS.

SCZ027-030-031-034>040-042>050-232200-
...SOUTHEAST SOUTH CAROLINA...

CITY           SKY/WX    TMP DP  RH WIND       PRES   REMARKS
N CHARLESTON   LGT RAIN  47  46  97 N12       29.99F
WATERFRONT PRK NOT AVBL
JOHNS ISLAND   LGT RAIN  48  48 100 N9G15     29.99R
PINOPOLIS        N/A     46  43  87 NE9       29.95S
MONCKS CORNER  DRIZZLE   45  43  93 N5        30.01S
SUMMERVILLE    RAIN      45  43  93 N6        30.02S
BEAUFORT MCAS  RAIN      49  49 100 N9        29.98R FOG
BEAUFORT ARPT  LGT RAIN  48  46  93 N10       29.98R
HILTON HEAD IS RAIN      50  50 100 N12       29.97S
WALTERBORO     DRIZZLE   45  43  93 NE6       30.01S
ALLENDALE      MOCLDY    50  41  71 N6        30.00S

...SOUTHERN MIDLANDS AND PEE DEE...

CITY           SKY/WX    TMP DP  RH WIND       PRES   REMARKS
GEORGETOWN     FAIR      45  45 100 N8        30.03F
KINGSTREE      FAIR      46  37  71 NE6       30.03S
ORANGEBURG     CLOUDY    48  38  68 NE7       30.02F
BARNWELL         N/A     54  41  62 NE10      30.01S
AIKEN          FAIR      52  37  58 NE9       30.04S
MANNING        MOCLDY    46  37  71 MISG      30.04S
COLUMBIA       CLOUDY    56  38  50 N8        30.01F
SUMTER         CLOUDY    49  35  58 NE5       30.01F
FLORENCE       CLOUDY    49  35  58 NE7       30.05S
MYRTLE BEACH   CLOUDY    48  40  73 N9        30.05R
N MYRTLE BEACH CLOUDY    49  39  68 N8        30.03S

$$

GAZ063-065-086>088-099>101-113>116-118-119-134>141-150-232200-
...SOUTHEAST GEORGIA...

CITY           SKY/WX    TMP DP  RH WIND       PRES   REMARKS
SAVANNAH ARPT  LGT RAIN  51  50  96 N7        29.98R FOG
HUNTER AAF     DRIZZLE   52  50  93 N6        29.94R
FORT STEWART   CLOUDY    52  50  93 N8        29.94R
STATESBORO     CLOUDY    53  43  70 NE6       29.99S
SYLVANIA       CLOUDY    53  47  79 NE6       30.00R
CLAXTON        CLOUDY    55  51  86 NW6       29.99R

...CSRA...CENTRAL AND FAR SOUTHEAST GEORGIA...

CITY           SKY/WX    TMP DP  RH WIND       PRES   REMARKS
THOMSON        SUNNY     58  39  50 SE8       30.06R
AUGUSTA-BUSH   MOSUNNY   60  41  49 NE8       30.00S
AUGUSTA-DANIEL MOSUNNY   59  40  49 NE8       30.00F
SWAINSBORO     MOCLDY    55  45  67 NE7       30.00R
VIDALIA        CLOUDY    55  48  76 N5        29.98S
EASTMAN        CLOUDY    61  38  42 NE7       30.00R
HAZLEHURST     CLOUDY    56  48  73 CALM      29.97R
ALMA           CLOUDY    55  52  89 VRB7      29.95R FOG
WAYCROSS       CLOUDY    55  52  89 N7        29.95R
JESUP          CLOUDY    54  52  94 CALM      29.95S FOG
BAXLEY         CLOUDY    52  52 100 N7        29.97R
BRUNSWICK      LGT RAIN  57  55  94 N8        29.93S
SAINT SIMONS   LGT RAIN  62  61  96 NE10G21   29.91R

$$

SCZ027-028-034-036>038-045-046-048>050-GAZ119-141-232200-
...LAKE AND SUPPLEMENTAL COASTAL OBSERVATIONS...

STATION/POSITION TIME  TEMP    WIND        PRES    WAVE   SWELL
                       AIR SEA DIR/SP/G            HT/PER HT/PER/DIR
                 (UTC) (F)     (DEG/KT/KT) (MB)    (FT/S) (FT/S/D)
WINYAH BAY       2045   46     350/  5     1017.0S
LAKE MURRAY      2050   55      30/  4/  6 1015.9F
ACE BASIN NERRS  2045   48      10/  3     1015.0S
FORT PULASKI     2100   53 61   40/ 12/ 14 1014.9
SAPELO ISLAND    2100   58      30/ 10     1013.0

$$

ANZ835-935-AMZ111-154-330-350-352-354-370-450-454-472-232200-
...C-MAN AND BUOY OBSERVATIONS...

STATION/POSITION TIME  TEMP    WIND        PRES    WAVE   SWELL
                       AIR SEA DIR/SP/G            HT/PER HT/PER/DIR
                 (UTC) (F)     (DEG/KT/KT) (MB)    (FT/S) (FT/S/D)
BUOY 41004       2110   64 75   30/ 21/ 27 1013.9
BUOY 41008       2050   63 67   60/ 21/ 25 1011.7F   6/ 9   3/110/ 9
FOLLY BEACH CMAN 2100   50      20/ 14/ 17 1015.4F
CAPERS NEARSHORE 2108   47 61   30/ 17/ 21 1014.7F
FRIPP NEARSHORE  2108   51 62   30/ 12/ 25 1013.8R


STATION/POSITION TIME  TEMP    WIND        PRES    WAVE   SWELL
                       AIR SEA DIR/SP/G            HT/PER HT/PER/DIR
                 (UTC) (F)     (DEG/KT/KT) (MB)    (FT/S) (FT/S/D)
5E ST. MARYS GA  2100      67                N/A     7/ 6
FRYING PAN BUOY  2110   59 71   30/ 21/ 25 1015.3
BUOY 41025       2110   54 71   10/ 16/ 19 1017.7
CAPE LOOKOUT NC  2100           10/ 11/ 14 1017.8R
BUOY 41002       2050   72 77   60/ 16/ 19 1012.7F   8/ 8   5/ 70/ 8
BUOY 41010       NOT AVBL
ST AUGUSTINE FL  2100   67 69   40/ 18/ 20 1010.3F


$$




USA.gov is the U.S. government's official web portal to all federal, state and local government web resources and services.